Location: Brno
(49.2000°N, 16.6330°E)
Time: 02:21:29
(UTC+02:00)

Vanguard 3 - Pass Details

Date: 31 July 2021
Orbit: 510 x 3260 km, 33.3° (Epoch: 19 September)

Event Time Altitude Azimuth Distance (km) Brightness Sun altitude
Rises 16:57:12 0° 196° (SSW) 5,312 11.6 33.5°
Reaches altitude 10° 17:01:26 10° 182° (S) 4,741 11.3 32.8°
Maximum altitude 17:11:24 23° 138° (SE) 4,544 10.8 31.2°
Drops below altitude 10° 17:23:58 10° 96° (E) 6,117 11.2 29.2°
Sets 17:30:30 0° 84° (E) 7,231 11.4 28.1°
